sat.trackr.live / text

‹ back to catalog

JY1SAT (JO-97)

NORAD 43803 · 2018-099AX

PAYLOAD ACTIVE UNKNOWN

§ Identity

Operator
Country
JOR
Launch date
2018-12-03
Launch site
AFWTR
Launch vehicle
Mass (kg)
RCS (m²)

Purposes: comms

External: N2YO · Heavens-Above · Gunter

§ Orbital elements

Epoch: 2026-09-19T10:04:19.480224Z

Period
93.72 min
Inclination
97.4022°
Eccentricity
0.0003853
Mean motion
15.36423222 rev/d
Perigee alt
454.1 km
Apogee alt
459.3 km
Semi-major
6,834.8 km
B*
3.4786e-4
RAAN
325.7200°
Arg perigee
296.9693°
Mean anomaly
63.1158°
Rev number
42,808

§ Raw data

JY1SAT (JO-97)1 43803U 18099AX  26262.41966991  .00012286  00000+0  34786-3 0  99972 43803  97.4022 325.7200 0003853 296.9693  63.1158 15.36423222428082

JSON: /api/v1/satellites/43803 · /tle

For live sub-satellite position, see the globe view (requires WebGL).

§ Visibility from observer

Set your observer location to see the next 7 days of passes ≥ 10°. The values pass through the URL so the page stays shareable.

No JS? Fill the form by hand. The geolocation button needs JavaScript.

§ Radio — SatNOGS DB

ModeDescriptionDownlinkUplink
BPSK BPSK1k2 TLM 145.840 MHz
CW U/V CW Transponder 145.855 MHz–145.875 MHz 435.100 MHz–435.120 MHz
USB U/V SSB Transponder 145.855 MHz–145.875 MHz 435.100 MHz–435.120 MHz

3 transmitters · refreshed weekly from db.satnogs.org